Hourly Weather Roundup
Issued by NWS Central Illinois

Home | Current Version | Previous Version | Text Only | Print | Product List | Glossary On
Versions: 1 2 3 4 5 6 7 8 9 10 11 12 13 14 15 16 17 18 19 20 21 22 23 24 25 26 27 28 29 30 31 32 33 34 35 36 37 38 39 40 41 42 43 44 45 46 47 48 49 50
000
NZUS43 KILX 240410
HWRILX

AREA WEATHER ROUNDUP
NATIONAL WEATHER SERVICE, LINCOLN IL
1100 PM CDT WED JUL 23 2014


CITY           SKY/WX    TMP DP  RH WIND       PRES   REMARKS
BLOOMINGTON    CLEAR     58  52  80 NE5       30.16R
CHAMPAIGN      CLEAR     61  53  75 N8        30.12F
DECATUR        NOT AVBL
FLORA          CLEAR     62  52  70 N7        30.10F
GALESBURG      CLEAR     60  57  89 CALM      30.15S
JACKSONVILLE   CLEAR     65  59  81 NE3       30.15R
LACON          CLEAR     62  55  76 E8        30.15R
LAWRENCEVILLE  CLEAR     64  55  72 N10       30.07S
LITCHFIELD     CLEAR     64  55  70 E7        30.13S
$$


CITY           SKY/WX    TMP DP  RH WIND       PRES   REMARKS
LINCOLN        CLEAR     61  55  82 CALM      30.12S
MACOMB         CLEAR     60  58  96 CALM      30.17S
MATTOON        CLEAR     59  50  72 N7        30.10F
MT CARMEL AP   CLEAR     66  57  72 N7        30.07S
OLNEY-NOBLE AP CLEAR     63  52  67 N3        30.09F
PARIS          CLEAR     59  51  74 N5        30.10S
PEORIA         CLEAR     68  54  60 E8        30.15R
PONTIAC        CLEAR     59  55  88 NE5       30.15R
RANTOUL        CLEAR     62  52  69 N9        30.13S
ROBINSON       CLEAR     63  53  70 N7        30.09F
SPRINGFIELD    CLEAR     65  56  72 E6        30.14R
TAYLORVILLE    CLEAR     64  50  59 NE8       30.13S
$$

...REGIONAL REPORTS...


CITY           SKY/WX    TMP DP  RH WIND       PRES   REMARKS
CHICAGO O`HARE CLEAR     62  48  60 N8        30.14R
KANKAKEE       CLEAR     60  51  72 N3        30.14R
MOLINE         CLEAR     63  58  83 CALM      30.14R
MOUNT VERNON   CLEAR     66  54  63 N5        30.10S
PITTSFIELD     CLEAR     63  59  87 CALM      30.15S
QUINCY         CLEAR     66  58  75 N3        30.14S
ROCKFORD       PTCLDY    62  52  69 CALM      30.20R
$$


CITY           SKY/WX    TMP DP  RH WIND       PRES   REMARKS
BURLINGTON     CLEAR     63  59  87 CALM      30.15R
CEDAR RAPIDS   CLEAR     62  56  80 CALM      30.14F
DES MOINES     CLEAR     73  57  57 E3        30.16R
KIRKSVILLE     CLEAR     67  57  70 E5        30.17S
OTTUMWA        CLEAR     63  60  90 CALM      30.15F
ST LOUIS       CLEAR     73  59  61 NE6       30.12S
$$


CITY           SKY/WX    TMP DP  RH WIND       PRES   REMARKS
TERRE HAUTE    CLEAR     61  50  67 N8        30.08F
EVANSVILLE     CLOUDY    72  61  68 N12       30.05R
INDIANAPOLIS   CLEAR     63  57  81 N13       30.05S
LAFAYETTE      CLEAR     59  50  72 N8        30.09F
MADISON        PTCLDY    63  54  72 SE12      30.17R
MILWAUKEE      PTCLDY    59  50  72 N6        30.16F
$$





USA.gov is the U.S. government's official web portal to all federal, state and local government web resources and services.